User: anonymous   Login
Location: Unspecified
(0.0000°N, 0.0000°E)
Time: 22:46:11
(UTC+00:00)
Language:

BRITE-PL - Orbit

View from above orbital plane
View from above orbital plane
View from above satellite
View from above satellite

Ground track
Ground track

The orbit data is extracted from the following two-line orbital elements,

1 39431U 13066R   18116.18283928  .00000005  00000-0  11791-4 0  9992
2 39431  97.7528  71.9541 0201417 227.0510 131.3638 14.46925154233711
Epoch (UTC): 26 April 2018 04:23:17
Eccentricity: 0.0201417
inclination: 97.7528°
perigee height: 592 km
apogee height: 879 km
right ascension of ascending node: 71.9541°
argument of perigee: 227.0510°
revolutions per day: 14.46925154
mean anomaly at epoch: 131.3638°
orbit number at epoch: 23371

The dashed part of the orbit path shows where the satellite is in the earth's shadow,  

DLR